Flag for Germany Weather past 2 weeks in Stendal, Saxony-Anhalt, Germany

Now
83 °F

Sunny.


Feels Like: 82 °F
Forecast: 67 / 94 °F
Wind: 3 mph from Southeast

Location: Magdeburg

Current Time: Jul 2, 2015 at 12:02:39 PM

Latest Report: Jul 2, 2015 at 11:00 AM


Visibility: 37 mi

Pressure: 30.21 "Hg

Humidity: 40%

Dew point: 56 °F

Location of StendalLocation

Historic Weather in Stendal — Graph

°F

Stendal temperature yesterday

Maximum temperature yesterday: 85 °F (at 6:00 PM)
Minimum temperature yesterday: 55 °F (at 6:00 AM)
Average temperature yesterday: 72 °F

Past Weeks' High & Low Weather Summary

 TemperatureHumidityPressure
High85 °F (Jul 1, 6:00 PM)96% (Jun 23, 6:00 AM)30.24 "Hg (Jun 23, 6:00 AM)
Low48 °F (Jun 21, 4:00 AM)28% (Jul 1, 4:00 PM)29.63 "Hg (Jun 23, 2:00 AM)
Average63 °F67%30.04 "Hg
* Reported Jun 17 12:00 Noon — Jul 2 11:00 AM, Stendal, Weather by CustomWeather, © 2015

Note: Actual official high and low records may vary slightly from our data, if they occured in-between our weather recording intervals... More about our weather records

Advertising

Stendal weather history for previous 24 hours

 ConditionsComfort  
Time TempWeatherWind HumidityBarometerVisibility
11:00 AM
Thu, Jul 2
83 °FSunny.3 mph40%30.21 "Hg37 mi
10:00 AM78 °FSunny.3 mph45%30.22 "Hg37 mi
9:00 AM74 °FSunny.3 mph50%30.22 "Hg37 mi
8:00 AM70 °FSunny.2 mph54%30.23 "Hg37 mi
7:00 AM67 °FSunny.1 mph61%30.22 "Hg37 mi
6:00 AM59 °FSunny.1 mph81%30.22 "Hg37 mi
4:00 AM64 °FClear.1 mph67%30.22 "Hg31 mi
3:00 AM66 °FPassing clouds.2 mph59%30.22 "Hg34 mi
2:00 AM67 °FClear.2 mph56%30.21 "Hg43 mi
1:00 AM69 °FPassing clouds.2 mph52%30.21 "Hg40 mi
12:00 AM70 °FPassing clouds.2 mph50%30.20 "Hg43 mi
11:00 PM
Wed, Jul 1
73 °FPassing clouds.2 mph49%30.19 "Hg40 mi
10:00 PM76 °FPassing clouds.2 mph43%30.18 "Hg28 mi
9:00 PM80 °FPassing clouds.2 mph35%30.16 "Hg37 mi
8:00 PM83 °FPassing clouds.3 mph28%30.15 "Hg37 mi
7:00 PM84 °FScattered clouds.3 mph28%30.15 "Hg37 mi
6:00 PM85 °FPassing clouds.3 mph28%30.16 "Hg37 mi
4:00 PM84 °FSunny.3 mph28%30.17 "Hg37 mi
3:00 PM82 °FPassing clouds.3 mph31%30.19 "Hg37 mi
2:00 PM82 °FPassing clouds.2 mph32%30.19 "Hg37 mi
1:00 PM81 °FPassing clouds.2 mph34%30.21 "Hg37 mi
12:00 PM79 °FPassing clouds.3 mph39%30.21 "Hg37 mi
Weather by CustomWeather, © 2015

See weather overviewHow to use our weather pages